Regional Weather Roundup
Issued by NWS

Home | Current Version | Previous Version | Text Only | Print | Product List | Glossary On
Versions: 1 2 3 4 5 6 7 8 9 10 11 12 13 14 15 16 17 18 19 20 21 22 23 24 25 26 27 28 29 30 31 32 33 34 35 36 37 38 39 40 41 42 43 44 45 46 47 48 49 50
000
ASUS45 KSLC 130310
RWRUT

UTAH REGIONAL WEATHER ROUNDUP
NATIONAL WEATHER SERVICE SALT LAKE CITY UT
900 PM MDT WED AUG 12 2020

UTZ001>011-023>025-130400-

NORTHERN UTAH

CITY           SKY/WX    TMP DP  RH WIND       PRES   REMARKS
BRIGHAM CITY   CLEAR     80  36  20 CALM      29.98R
HILL AFB       CLEAR     81  37  21 E5        30.02S
LOGAN          CLEAR     71  50  47 N6        29.99R
OGDEN          CLEAR     84  34  16 E5        29.98S
SALT LAKE CITY PTCLDY    86  38  18 NE6       29.96S
TOOELE VALLEY  PTCLDY    75  50  41 SE3       29.98R
WENDOVER       PTCLDY    85  22  10 NW8       29.96R
HEBER CITY       N/A     68  36  30 SE3       30.09R
WEST JORDAN    CLEAR     83  41  22 CALM      30.01S

$$

UTZ011>015-024>027-130400-

CENTRAL/NORTHEAST UTAH

CITY           SKY/WX    TMP DP  RH WIND       PRES   REMARKS
PROVO AIRPORT  CLEAR     78  59  51 NW8       30.00R
MOAB/CANYONLAN CLEAR     83  18   9 SW7       29.97R
DELTA          CLEAR     77  21  12 SW9       30.00R
MANTI            N/A     72  23  16 S9        30.08R
PRICE          CLEAR     79  20  11 NW6       30.11R
ROOSEVELT      CLEAR     81  21  11 W12       30.08R
DUCHESNE       CLEAR     77  14   9 NW5       30.12R
VERNAL         CLEAR     80  17   9 W7        30.06R

$$

UTZ013>016-019>022-027-130400-

SOUTHERN UTAH

CITY           SKY/WX    TMP DP  RH WIND       PRES   REMARKS
BRYCE CANYON   CLEAR     61  11  14 W6        30.32R
CEDAR CITY     CLEAR     77  -3   4 S10       30.14R
MILFORD        CLEAR     79   8   6 SW14      30.06R
PANGUITCH      CLEAR     70   9   9 S7        30.26R
ST GEORGE      CLEAR     96  14   5 CALM      29.92R
HANKSVILLE     CLEAR     88  10   5 W10       29.99
BLANDING         N/A     79  22  12 W3        30.23R

$$

REGIONAL REPORTS     COLORADO/ARIZONA

CITY           SKY/WX    TMP DP  RH WIND       PRES   REMARKS
CRAIG, CO      MOCLDY    72  33  24 CALM      30.14R
GRAND JUNCTION CLEAR     81  16   9 S7        30.02R
RIFLE, CO      MOCLDY    78  18  10 NE3       30.10R
MONTROSE, CO   CLEAR     79  24  13 CALM      30.15R
CORTEZ, CO     CLEAR     65  35  33 VRB3      30.18R
COLORADO CITY    N/A     84  19   9 N5        30.13R
PAGE, AZ       CLEAR     93  22   7 W7        30.01R
GRAND CANYON   CLEAR     67  32  27 W3        30.26R
KINGMAN, AZ    CLEAR     90  43  19 SW8       29.99R
FLAGSTAFF, AZ  PTCLDY    75  38  26 W6        30.30R

$$

REGIONAL REPORTS    NEVADA/IDAHO/WYOMING

CITY           SKY/WX    TMP DP  RH WIND       PRES   REMARKS
LAS VEGAS, NV  CLEAR    100  25   7 SW7       29.85R HX  93
ELY, NY        PTCLDY    73  22  14 SW7       30.13R
ELKO, NV       CLEAR     74  11   9 SW5       30.04R
POCATELLO, ID  MOCLDY    72  43  35 S5        29.99R
BURLEY, ID     MOCLDY    72  51  47 SW3       29.95R
EVANSTON, WY   CLEAR     68  29  23 W10       30.22S
ROCK SPRINGS,  CLEAR     66  37  34 NW9       30.20R

$$



USA.gov is the U.S. government's official web portal to all federal, state and local government web resources and services.